Monte Cimone, Italy

6:11 PM CEST on August 20, 2017 (GMT +0200)
Monte Cimone

Weather History for LIVC - December, 2012

Change the Weather History Date:

Saturday, December 1, 2012

  Actual Average Record
Temperature  
Mean Temperature 26 °F -  
Max Temperature 27 °F 31 °F 48 °F (1998)
Min Temperature 24 °F 23 °F 15 °F (1998)
Degree Days  
Heating Degree Days 40    
Moisture  
Dew Point 24 °F    
Average Humidity 92    
Maximum Humidity 93    
Minimum Humidity 87    
Precipitation  
Precipitation 0.16 in 0.07 in - ()
Sea Level Pressure  
Sea Level Pressure 29.60 in    
Wind  
Wind Speed 20 mph ()    
Max Wind Speed 31 mph    
Max Gust Speed -    
Visibility 0.0 miles    
Events Fog    
Averages and records for this station are not official NWS values.
T = Trace of Precipitation, MM = Missing Value Source: Averaged Metar Reports

Daily Weather History Graph

Daily Weather History Graph

Search for Another Location

Airport or City:

Trip Planner

Search our weather history database for the weather conditions in past years. The results will help you decide how hot, cold, wet, or windy it might be!

Date:

Astronomy

Dec. 01, 2012 Rise Set
Actual Time 7:32 AM CET 4:39 PM CET
Civil Twilight 7:00 AM CET 5:12 PM CET
Nautical Twilight 6:24 AM CET 5:48 PM CET
Astronomical Twilight 5:49 AM CET 6:23 PM CET
Moon 7:15 PM CET (12/1) 9:33 AM CET (12/1)
Length of Visible Light 10h 12m
Length of Day
9h 06m
Waning Gibbous, 93% of the Moon is Illuminated
Dec 1
Waning Gibbous
Dec 6
Last Quarter
Dec 13
New
Dec 20
First Quarter
Dec 28
Full

Hourly Weather History & Observations

Time (CET) Temp. Windchill Dew Point Humidity Pressure Visibility Wind Dir Wind Speed Gust Speed Precip Events Conditions
12:55 AM 24.8 °F 11.5 °F 23.0 °F 93% 29.50 in 0.0 mi SE 17.3 mph - N/A Fog Light Freezing Fog
1:00 AM 26 °F - 24 °F 87%  in 0 mi SE 17.3 mph - - Fog Heavy Fog
1:55 AM 24.8 °F 11.1 °F 23.0 °F 93% 29.50 in 0.0 mi SE 18.4 mph - N/A Fog Light Freezing Fog
2:55 AM 24.8 °F 10.3 °F 23.0 °F 93% 29.50 in 0.0 mi SE 20.7 mph - N/A Fog Light Freezing Fog
3:55 AM 24.8 °F 10.3 °F 23.0 °F 93% 29.53 in 0.0 mi SE 20.7 mph - N/A Fog Light Freezing Fog
4:55 AM 24.8 °F 11.1 °F 23.0 °F 93% 29.56 in 0.0 mi SE 18.4 mph - N/A Fog Light Freezing Fog
5:55 AM 24.8 °F 11.1 °F 23.0 °F 93% 29.56 in 0.0 mi SE 18.4 mph - N/A Fog Light Freezing Fog
6:55 AM 24.8 °F 9.6 °F 23.0 °F 93% 29.56 in 0.0 mi SE 23.0 mph - N/A Fog Light Freezing Fog
7:00 AM 26 °F - 24 °F 87%  in 0 mi SE 23.0 mph - - Fog Heavy Fog
7:55 AM 26.6 °F 11.1 °F 24.8 °F 93% 29.56 in 0.0 mi SSE 26.5 mph - N/A Fog Light Freezing Fog
8:55 AM 26.6 °F 11.7 °F 24.8 °F 93% 29.59 in - SSE 24.2 mph - N/A Fog Light Freezing Fog
9:55 AM 26.6 °F 11.4 °F 24.8 °F 93% 29.62 in - SSE 25.3 mph - N/A Fog Light Freezing Fog
10:55 AM 26.6 °F 12.0 °F 24.8 °F 93% 29.62 in - SSE 23.0 mph - N/A Fog Light Freezing Fog
11:55 AM 26.6 °F 10.8 °F 24.8 °F 93% 29.62 in - SSE 27.6 mph - N/A Fog Light Freezing Fog
12:55 PM 26.6 °F 10.6 °F 24.8 °F 93% 29.62 in - SSE 28.8 mph - N/A Fog Light Freezing Fog
1:55 PM 28.4 °F 13.0 °F 26.6 °F 93% 29.62 in - SSE 28.8 mph - N/A Fog Light Freezing Fog
2:55 PM 28.4 °F 13.3 °F 26.6 °F 93% 29.62 in - SSE 27.6 mph - N/A Fog Light Freezing Fog
3:55 PM 26.6 °F 10.3 °F 24.8 °F 93% 29.62 in - SSE 29.9 mph - N/A Fog Light Freezing Fog
4:55 PM 24.8 °F 9.0 °F 23.0 °F 93% 29.65 in - SSE 25.3 mph - N/A Fog Light Freezing Fog
5:55 PM 26.6 °F 12.0 °F 24.8 °F 93% 29.65 in 0.0 mi SSE 23.0 mph - N/A Fog Light Freezing Fog
6:55 PM 26.6 °F 10.8 °F 24.8 °F 93% 29.65 in 0.0 mi SSE 27.6 mph - N/A Fog Light Freezing Fog
7:00 PM 27 °F - 25 °F 88%  in 0 mi SSE 27.6 mph - - Fog Heavy Fog
7:55 PM 26.6 °F 11.4 °F 24.8 °F 93% 29.65 in 0.0 mi ESE 25.3 mph - N/A Fog Light Freezing Fog
8:55 PM 26.6 °F 11.1 °F 24.8 °F 93% 29.68 in 0.0 mi SSE 26.5 mph - N/A Fog Light Freezing Fog
9:55 PM 26.6 °F 11.4 °F 24.8 °F 93% 29.65 in 0.0 mi SE 25.3 mph - N/A Fog Light Freezing Fog
10:55 PM 26.6 °F 10.0 °F 24.8 °F 93% 29.65 in 0.0 mi SE 31.1 mph - N/A Fog Light Freezing Fog
11:55 PM 26.6 °F 10.3 °F 24.8 °F 93% 29.65 in 0.0 mi SE 29.9 mph - N/A Fog Light Freezing Fog